Find Sentinel-1C

NORAD ID: 62261 Int'l Des: 2024-235 Owner: COPERN/ESA Country: I-EU operational
LEOCIRCULARRETROGRADESSO

Live Position

Loading 3D Globe...

About Sentinel-1C

Description loading...

Upcoming Passes

Passes for default location (London). Set your location on the main map for personalized predictions.

Altitude History

Loading altitude history...

Two-Line Element Set

1 62261U 24235A 26106.96113705 .00000124 00000-0 36078-4 0 9995
2 62261 98.1829 115.1427 0001375 91.8127 268.3231 14.59198078 72489
Epoch: Apr 16, 2026 • Age: 6 hours

Current Status

Altitude 710.2 km
Velocity 7.50 km/s
Sub-Earth Point -36.38°S, 166.15°W
Launch Date Dec 5, 2024
Age 1.3 years
Type earth observation

Technical Details

Classification Payload
Mass 2157.00 kg
Dry Mass 2027.00 kg
Total Mass 2157.00 kg
Length 3.42 m
Diameter 1.60 m
Span 21.04 m
Shape Box + 4 pan
Manufacturer THALES
Bus Type PRIMA
Phase Status In Orbit
Owner/State COPERN/ESA/I-EU

Most Searched